INTELSAT 907 (IS-907)

Last updated on June 27, 2019, 3:44 a.m. UTC

1 27683U 03007A   19177.49015699 -.00000195  00000-0  00000+0 0  9999
2 27683   0.0197 256.7630 0002291 198.3887 328.1201  1.00272391 59840
UTC
Height (km)
Latitude
Longitude
Inclination
Orbital Period
UTC large
Height (km)
Speed (km/s)
/
Latitude / Longitude
Inclination (degrees)
Orbital Period (minutes)
Azimuth
Elevation
Range (km)
Doppler Factor
iOS Compass Heading
iOS Angle

Next 30 passes for location: Hong Kong

Rise time Rise Azimuth (degrees) Set time Set Azimuth (degrees) Duration Max altitude (degrees)

No matching passes for this satellites